Change the Weather History Date:

Friday, August 29, 2014

  Actual Average Record
Temperature  
Mean Temperature 73 °F 70 °F  
Max Temperature 82 °F 81 °F 103 °F (2012)
Min Temperature 63 °F 58 °F 37 °F (1946)
Degree Days  
Heating Degree Days 0 1  
Month to date heating degree days 3 4  
Since 1 June heating degree days 38 44  
Since 1 July heating degree days 12 9  
Cooling Degree Days 8 5  
Month to date cooling degree days 186 218  
Year to date cooling degree days 638 736  
Since 1 June cooling degree days 560 696  
Growing Degree Days 24 (Base 50)    
Moisture  
Dew Point 68 °F    
Average Humidity 79    
Maximum Humidity 100    
Minimum Humidity 58    
Precipitation  
Precipitation 0.11 in 0.07 in 2.51 in (1920)
Month to date precipitation 4.82 2.24  
Year to date precipitation 15.10 16.21  
Snow  
Snow 0.00 in - 0.00 in ()
Month to date snowfall 0.0  
Since 1 June snowfall 0.0  
Since 1 July snowfall 0.0  
Snow Depth 0.00 in    
Sea Level Pressure  
Sea Level Pressure 29.79 in    
Wind  
Wind Speed 6 mph (NW)    
Max Wind Speed 17 mph    
Max Gust Speed 23 mph    
Visibility 5 miles    
Events Fog , Rain , Thunderstorm    
T = Trace of Precipitation, MM = Missing Value Source: NWS Daily Summary

Daily Weather History Graph

Daily Weather History Graph

Search for Another Location

Airport or City:

Trip Planner

Search our weather history database for the weather conditions in past years. The results will help you decide how hot, cold, wet, or windy it might be!

Date:

Astronomy

Aug. 29, 2014 Rise Set
Actual Time 6:52 AM CDT 8:12 PM CDT
Civil Twilight 6:22 AM CDT 8:42 PM CDT
Nautical Twilight 5:46 AM CDT 9:18 PM CDT
Astronomical Twilight 5:08 AM CDT 9:56 PM CDT
Moon 10:52 AM CDT (8/29) 10:01 PM CDT (8/29)
Length of Visible Light 14h 20m
Length of Day
13h 20m
Waxing Crescent, 15% of the Moon is Illuminated
Aug 29
Waxing Crescent
Sep 2
First Quarter
Sep 8
Full
Sep 15
Last Quarter
Sep 24
New

Hourly Weather History & Observations

Time (CDT) Temp. Heat Index Dew Point Humidity Pressure Visibility Wind Dir Wind Speed Gust Speed Precip Events Conditions
12:53 AM 71.1 °F - 70.0 °F 96% 29.77 in 4.0 mi East 3.5 mph - N/A   Overcast
1:53 AM 71.1 °F - 70.0 °F 96% 29.76 in 4.0 mi Calm Calm - N/A   Overcast
2:53 AM 71.1 °F - 70.0 °F 96% 29.75 in 4.0 mi Calm Calm - N/A   Overcast
3:37 AM 70.0 °F - 70.0 °F 100% 29.77 in 1.8 mi WSW 4.6 mph - N/A   Overcast
3:53 AM 69.1 °F - 69.1 °F 100% 29.75 in 0.8 mi WSW 4.6 mph - N/A   Mist
4:06 AM 69.1 °F - 69.1 °F 100% 29.77 in 1.2 mi West 5.8 mph - N/A   Overcast
4:41 AM 69.1 °F - 69.1 °F 100% 29.76 in 0.5 mi WNW 6.9 mph - N/A Fog Fog
4:53 AM 69.1 °F - 69.1 °F 100% 29.75 in 0.5 mi West 5.8 mph - N/A Fog Fog
5:02 AM 69.1 °F - 68.0 °F 96% 29.77 in 0.2 mi West 6.9 mph - N/A Fog Fog
5:26 AM 68.0 °F - 68.0 °F 100% 29.77 in 0.5 mi WNW 5.8 mph - N/A Fog Fog
5:41 AM 68.0 °F - 68.0 °F 100% 29.77 in 1.2 mi WNW 5.8 mph - N/A   Overcast
5:49 AM 68.0 °F - 68.0 °F 100% 29.77 in 3.0 mi WNW 4.6 mph - N/A   Overcast
5:53 AM 68.0 °F - 68.0 °F 100% 29.75 in 3.0 mi WNW 4.6 mph - N/A   Overcast
6:00 AM 68.0 °F - 68.0 °F 100% 29.77 in 3.0 mi WNW 3.5 mph - N/A   Overcast
6:11 AM 68.0 °F - 68.0 °F 100% 29.77 in 2.5 mi Calm Calm - N/A   Overcast
6:31 AM 68.0 °F - 66.9 °F 96% 29.78 in 4.0 mi West 4.6 mph - N/A   Overcast
6:53 AM 68.0 °F - 68.0 °F 100% 29.76 in 2.5 mi WNW 4.6 mph - N/A   Overcast
7:10 AM 69.1 °F - 68.0 °F 96% 29.79 in 1.0 mi West 5.8 mph - N/A   Overcast
7:18 AM 69.1 °F - 69.1 °F 100% 29.79 in 0.5 mi West 4.6 mph - N/A Fog Fog
7:26 AM 69.1 °F - 68.0 °F 96% 29.79 in 0.2 mi West 5.8 mph - N/A Fog Fog
7:53 AM 69.1 °F - 69.1 °F 100% 29.78 in 0.2 mi NW 4.6 mph - N/A Fog Fog
8:05 AM 69.1 °F - 69.1 °F 100% 29.80 in 0.8 mi NW 3.5 mph - N/A   Mist
8:12 AM 69.1 °F - 69.1 °F 100% 29.80 in 1.2 mi NW 4.6 mph - N/A   Overcast
8:17 AM 69.1 °F - 69.1 °F 100% 29.79 in 2.0 mi NW 4.6 mph - N/A   Overcast
8:42 AM 69.1 °F - 69.1 °F 100% 29.80 in 2.5 mi North 3.5 mph - N/A   Overcast
8:47 AM 69.8 °F - 69.8 °F 100% 29.80 in 3.0 mi NNW 3.5 mph - N/A   Overcast
8:53 AM 69.1 °F - 69.1 °F 100% 29.78 in 4.0 mi Calm Calm - N/A   Overcast
9:27 AM 70.0 °F - 69.1 °F 97% 29.79 in 8.0 mi NNW 5.8 mph - N/A   Overcast
9:46 AM 70.0 °F - 69.1 °F 97% 29.79 in 6.0 mi WNW 8.1 mph - N/A   Overcast
10:02 AM 70.0 °F - 69.1 °F 97% 29.80 in 5.0 mi WNW 5.8 mph - N/A   Overcast
10:13 AM 70.0 °F - 69.1 °F 97% 29.80 in 4.0 mi West 6.9 mph - N/A   Overcast
10:53 AM 71.1 °F - 70.0 °F 96% 29.79 in 6.0 mi WNW 4.6 mph - N/A   Overcast
11:17 AM 72.0 °F - 69.1 °F 91% 29.82 in 9.0 mi North 6.9 mph - 0.00 in   Overcast
11:26 AM 72.0 °F - 70.0 °F 93% 29.82 in 10.0 mi North 6.9 mph - 0.00 in   Overcast
11:51 AM 73.4 °F - 69.8 °F 88% 29.82 in 10.0 mi North 6.9 mph - 0.00 in   Overcast
11:53 AM 73.0 °F - 69.1 °F 87% 29.81 in 10.0 mi North 6.9 mph - 0.00 in   Overcast
12:04 PM 72.0 °F - 69.1 °F 91% 29.83 in 8.0 mi North 8.1 mph - 0.00 in Rain Light Rain
12:22 PM 73.0 °F - 69.1 °F 87% 29.83 in 10.0 mi North 8.1 mph - 0.00 in   Overcast
12:53 PM 75.9 °F - 69.1 °F 79% 29.80 in 10.0 mi North 9.2 mph - 0.00 in   Scattered Clouds
1:05 PM 75.9 °F - 69.1 °F 79% 29.81 in 10.0 mi NNW 10.4 mph - N/A   Mostly Cloudy
1:38 PM 75.9 °F - 69.1 °F 79% 29.81 in 10.0 mi NW 9.2 mph - N/A   Mostly Cloudy
1:53 PM 77.0 °F - 68.0 °F 74% 29.78 in 10.0 mi NW 8.1 mph - N/A   Scattered Clouds
3:53 PM 80.1 °F 82.7 °F 68.0 °F 67% 29.75 in 10.0 mi NW 6.9 mph - N/A   Partly Cloudy
4:53 PM 81.0 °F 83.3 °F 66.9 °F 62% 29.75 in 10.0 mi NNW 6.9 mph - N/A   Scattered Clouds
5:53 PM 82.0 °F 84.5 °F 66.9 °F 60% 29.75 in 10.0 mi NW 4.6 mph - N/A   Clear
6:53 PM 71.1 °F - 62.1 °F 73% 29.79 in 10.0 mi WNW 12.7 mph - N/A   Mostly Cloudy
7:05 PM 68.0 °F - 62.1 °F 81% 29.82 in 8.0 mi WNW 15.0 mph - 0.00 in Rain , Thunderstorm Rain
7:40 PM 68.0 °F - 64.9 °F 90% 29.82 in 2.0 mi WNW 9.2 mph - 0.11 in Rain , Thunderstorm Rain
7:43 PM 69.1 °F - 64.9 °F 87% 29.82 in 4.0 mi WNW 8.1 mph - 0.11 in Rain Light Rain
7:53 PM 68.0 °F - 64.9 °F 90% 29.80 in 10.0 mi North 6.9 mph - 0.11 in Rain Light Rain
8:53 PM 66.9 °F - 64.9 °F 93% 29.82 in 10.0 mi NNW 4.6 mph - 0.00 in   Clear
10:53 PM 68.0 °F - 64.0 °F 87% 29.86 in 10.0 mi NNW 11.5 mph - N/A   Mostly Cloudy
11:53 PM 66.0 °F - 63.0 °F 90% 29.87 in 10.0 mi NNW 11.5 mph - N/A   Clear